Time,TemperatureF,DewpointF,PressureIn,WindDirection,WindDirectionDegrees,WindSpeedMPH,WindSpeedGustMPH,Humidity,HourlyPrecipIn,Conditions,Clouds,dailyrainin,SoftwareType,DateUTC
2013-03-28 00:02:00,37.9,27.9,30.37,ESE,112,6.0,14.0,67,0.00,,,0.00,Weather View 32 v70,2013-03-28 05:02:00,
2013-03-28 00:07:00,37.8,27.8,30.37,SE,135,6.0,14.0,67,0.00,,,0.00,Weather View 32 v70,2013-03-28 05:07:00,
2013-03-28 00:12:00,37.7,27.7,30.37,ESE,112,5.0,14.0,67,0.00,,,0.00,Weather View 32 v70,2013-03-28 05:12:00,
2013-03-28 00:17:00,37.5,27.9,30.37,SE,135,2.0,14.0,68,0.00,,,0.00,Weather View 32 v70,2013-03-28 05:17:00,
2013-03-28 00:22:00,37.5,27.9,30.37,ESE,112,3.0,14.0,68,0.00,,,0.00,Weather View 32 v70,2013-03-28 05:22:00,
2013-03-28 00:27:00,37.3,27.7,30.37,ESE,112,2.0,14.0,68,0.00,,,0.00,Weather View 32 v70,2013-03-28 05:27:00,
2013-03-28 00:32:00,37.1,27.9,30.37,SE,135,4.0,12.0,69,0.00,,,0.00,Weather View 32 v70,2013-03-28 05:32:00,
2013-03-28 00:37:00,36.9,27.7,30.37,ESE,112,4.0,12.0,69,0.00,,,0.00,Weather View 32 v70,2013-03-28 05:37:00,
2013-03-28 00:42:00,36.9,27.7,30.37,ESE,112,6.0,12.0,69,0.00,,,0.00,Weather View 32 v70,2013-03-28 05:42:00,
2013-03-28 00:47:00,36.7,27.8,30.37,ESE,112,7.0,12.0,70,0.00,,,0.00,Weather View 32 v70,2013-03-28 05:47:00,
2013-03-28 00:52:00,36.6,27.7,30.37,SE,135,2.0,12.0,70,0.00,,,0.00,Weather View 32 v70,2013-03-28 05:52:00,
2013-03-28 00:57:00,36.5,27.6,30.37,ESE,112,2.0,12.0,70,0.00,,,0.00,Weather View 32 v70,2013-03-28 05:57:00,
2013-03-28 01:02:00,36.3,27.8,30.37,SE,135,2.0,12.0,71,0.00,,,0.00,Weather View 32 v70,2013-03-28 06:02:00,
2013-03-28 01:07:00,36.2,27.7,30.37,ESE,112,6.0,12.0,71,0.00,,,0.00,Weather View 32 v70,2013-03-28 06:07:00,
2013-03-28 01:12:00,36.0,27.8,30.37,ESE,112,4.0,12.0,72,0.00,,,0.00,Weather View 32 v70,2013-03-28 06:12:00,
2013-03-28 01:18:00,35.9,27.7,30.37,SE,135,3.0,12.0,72,0.00,,,0.00,Weather View 32 v70,2013-03-28 06:18:00,
2013-03-28 01:23:00,35.9,27.7,30.37,ESE,112,7.0,11.0,72,0.00,,,0.00,Weather View 32 v70,2013-03-28 06:23:00,
2013-03-28 01:28:00,35.8,27.7,30.37,ESE,112,4.0,9.0,72,0.00,,,0.00,Weather View 32 v70,2013-03-28 06:28:00,
2013-03-28 01:33:00,35.8,28.0,30.37,ESE,112,4.0,9.0,73,0.00,,,0.00,Weather View 32 v70,2013-03-28 06:33:00,
2013-03-28 01:38:00,35.8,28.0,30.37,East,90,5.0,9.0,73,0.00,,,0.00,Weather View 32 v70,2013-03-28 06:38:00,
2013-03-28 01:43:00,35.7,27.9,30.37,ESE,112,4.0,9.0,73,0.00,,,0.00,Weather View 32 v70,2013-03-28 06:43:00,
2013-03-28 01:48:00,35.5,28.0,30.37,ESE,112,3.0,9.0,74,0.00,,,0.00,Weather View 32 v70,2013-03-28 06:48:00,
2013-03-28 01:53:00,35.4,27.9,30.37,East,90,7.0,9.0,74,0.00,,,0.00,Weather View 32 v70,2013-03-28 06:53:00,
2013-03-28 01:58:00,35.4,27.9,30.37,ESE,112,4.0,9.0,74,0.00,,,0.00,Weather View 32 v70,2013-03-28 06:58:00,
2013-03-28 02:03:00,35.4,28.3,30.37,East,90,7.0,9.0,75,0.00,,,0.00,Weather View 32 v70,2013-03-28 07:03:00,
2013-03-28 02:08:00,35.3,28.2,30.37,ESE,112,10.0,10.0,75,0.00,,,0.00,Weather View 32 v70,2013-03-28 07:08:00,
2013-03-28 02:13:00,35.4,28.3,30.37,East,90,6.0,11.0,75,0.00,,,0.00,Weather View 32 v70,2013-03-28 07:13:00,
2013-03-28 02:18:00,35.3,28.2,30.37,ESE,112,7.0,11.0,75,0.00,,,0.00,Weather View 32 v70,2013-03-28 07:18:00,
2013-03-28 02:23:00,35.3,28.5,30.37,ESE,112,4.0,11.0,76,0.00,,,0.00,Weather View 32 v70,2013-03-28 07:23:00,
2013-03-28 02:30:00,35.4,28.6,30.37,ESE,112,7.0,11.0,76,0.00,,,0.00,Weather View 32 v70,2013-03-28 07:30:00,
2013-03-28 02:35:00,35.4,28.6,30.37,SE,135,5.0,11.0,76,0.00,,,0.00,Weather View 32 v70,2013-03-28 07:35:00,
2013-03-28 02:40:00,35.4,28.6,30.37,SE,135,7.0,11.0,76,0.00,,,0.00,Weather View 32 v70,2013-03-28 07:40:00,
2013-03-28 02:45:00,35.3,28.8,30.36,East,90,5.0,11.0,77,0.00,,,0.00,Weather View 32 v70,2013-03-28 07:45:00,
2013-03-28 02:50:00,35.3,28.8,30.36,ESE,112,5.0,11.0,77,0.00,,,0.00,Weather View 32 v70,2013-03-28 07:50:00,
2013-03-28 02:55:00,35.3,28.8,30.36,ESE,112,7.0,11.0,77,0.00,,,0.00,Weather View 32 v70,2013-03-28 07:55:00,
2013-03-28 03:00:00,35.3,28.8,30.36,ESE,112,4.0,11.0,77,0.00,,,0.00,Weather View 32 v70,2013-03-28 08:00:00,
2013-03-28 03:05:00,35.3,29.1,30.36,ESE,112,6.0,11.0,78,0.00,,,0.00,Weather View 32 v70,2013-03-28 08:05:00,
2013-03-28 03:10:00,35.3,29.1,30.36,East,90,6.0,10.0,78,0.00,,,0.00,Weather View 32 v70,2013-03-28 08:10:00,
2013-03-28 03:15:00,35.2,29.0,30.36,East,90,6.0,10.0,78,0.00,,,0.00,Weather View 32 v70,2013-03-28 08:15:00,
2013-03-28 03:20:00,35.1,29.2,30.35,ESE,112,5.0,10.0,79,0.00,,,0.00,Weather View 32 v70,2013-03-28 08:20:00,
2013-03-28 03:25:00,35.3,29.4,30.35,ESE,112,7.0,10.0,79,0.00,,,0.00,Weather View 32 v70,2013-03-28 08:25:00,
2013-03-28 03:30:00,35.3,29.4,30.35,ESE,112,5.0,10.0,79,0.00,,,0.00,Weather View 32 v70,2013-03-28 08:30:00,
2013-03-28 03:35:00,35.4,29.5,30.36,SE,135,7.0,10.0,79,0.00,,,0.00,Weather View 32 v70,2013-03-28 08:35:00,
2013-03-28 03:40:00,35.4,29.5,30.35,ESE,112,4.0,10.0,79,0.00,,,0.00,Weather View 32 v70,2013-03-28 08:40:00,
2013-03-28 03:45:00,35.3,29.4,30.36,ESE,112,2.0,10.0,79,0.00,,,0.00,Weather View 32 v70,2013-03-28 08:45:00,
2013-03-28 03:50:00,35.1,29.5,30.35,ESE,112,4.0,10.0,80,0.00,,,0.00,Weather View 32 v70,2013-03-28 08:50:00,
2013-03-28 03:55:00,34.9,29.4,30.35,East,90,3.0,10.0,80,0.00,,,0.00,Weather View 32 v70,2013-03-28 08:55:00,
2013-03-28 04:00:00,34.8,29.6,30.35,ESE,112,2.0,10.0,81,0.00,,,0.00,Weather View 32 v70,2013-03-28 09:00:00,
2013-03-28 04:05:00,34.5,29.3,30.35,ESE,112,2.0,10.0,81,0.00,,,0.00,Weather View 32 v70,2013-03-28 09:05:00,
2013-03-28 04:10:00,34.4,29.5,30.35,ESE,112,5.0,10.0,82,0.00,,,0.00,Weather View 32 v70,2013-03-28 09:10:00,
2013-03-28 04:15:00,34.3,29.4,30.35,ESE,112,3.0,9.0,82,0.00,,,0.00,Weather View 32 v70,2013-03-28 09:15:00,
2013-03-28 04:20:00,34.1,29.2,30.35,ESE,112,2.0,9.0,82,0.00,,,0.00,Weather View 32 v70,2013-03-28 09:20:00,
2013-03-28 04:25:00,34.0,29.4,30.35,SE,135,4.0,9.0,83,0.00,,,0.00,Weather View 32 v70,2013-03-28 09:25:00,
2013-03-28 04:30:00,33.9,29.3,30.35,SE,135,3.0,9.0,83,0.00,,,0.00,Weather View 32 v70,2013-03-28 09:30:00,
2013-03-28 04:35:00,33.8,29.2,30.35,ESE,112,4.0,9.0,83,0.00,,,0.00,Weather View 32 v70,2013-03-28 09:35:00,
2013-03-28 04:40:00,33.7,29.1,30.35,ESE,112,4.0,9.0,83,0.00,,,0.00,Weather View 32 v70,2013-03-28 09:40:00,
2013-03-28 04:45:00,33.7,29.4,30.35,ESE,112,3.0,6.0,84,0.00,,,0.00,Weather View 32 v70,2013-03-28 09:45:00,
2013-03-28 04:50:00,33.7,29.4,30.35,ESE,112,4.0,6.0,84,0.00,,,0.00,Weather View 32 v70,2013-03-28 09:50:00,
2013-03-28 04:55:00,33.7,29.4,30.35,ESE,112,3.0,7.0,84,0.00,,,0.00,Weather View 32 v70,2013-03-28 09:55:00,
2013-03-28 05:00:00,33.7,29.4,30.35,ESE,112,4.0,7.0,84,0.00,,,0.00,Weather View 32 v70,2013-03-28 10:00:00,
2013-03-28 05:05:00,33.7,29.4,30.35,ESE,112,6.0,7.0,84,0.00,,,0.00,Weather View 32 v70,2013-03-28 10:05:00,
2013-03-28 05:10:00,33.8,29.5,30.35,ESE,112,4.0,7.0,84,0.00,,,0.00,Weather View 32 v70,2013-03-28 10:10:00,
2013-03-28 05:15:00,33.8,29.5,30.35,ESE,112,2.0,7.0,84,0.00,,,0.00,Weather View 32 v70,2013-03-28 10:15:00,
2013-03-28 05:20:00,33.8,29.5,30.35,ESE,112,4.0,7.0,84,0.00,,,0.00,Weather View 32 v70,2013-03-28 10:20:00,
2013-03-28 05:25:00,33.7,29.4,30.35,ESE,112,5.0,7.0,84,0.00,,,0.00,Weather View 32 v70,2013-03-28 10:25:00,
2013-03-28 05:30:00,33.7,29.4,30.35,East,90,6.0,8.0,84,0.00,,,0.00,Weather View 32 v70,2013-03-28 10:30:00,
2013-03-28 05:35:00,33.7,29.7,30.35,East,90,4.0,8.0,85,0.00,,,0.00,Weather View 32 v70,2013-03-28 10:35:00,
2013-03-28 05:40:00,33.6,29.6,30.35,ESE,112,4.0,8.0,85,0.00,,,0.00,Weather View 32 v70,2013-03-28 10:40:00,
2013-03-28 05:45:00,33.5,29.5,30.35,East,90,4.0,9.0,85,0.00,,,0.00,Weather View 32 v70,2013-03-28 10:45:00,
2013-03-28 05:50:00,33.5,29.5,30.35,ESE,112,5.0,9.0,85,0.00,,,0.00,Weather View 32 v70,2013-03-28 10:50:00,
2013-03-28 05:55:00,33.3,29.3,30.35,ESE,112,3.0,9.0,85,0.00,,,0.00,Weather View 32 v70,2013-03-28 10:55:00,
2013-03-28 06:00:00,33.3,29.3,30.35,ESE,112,3.0,9.0,85,0.00,,,0.00,Weather View 32 v70,2013-03-28 11:00:00,
2013-03-28 06:05:00,33.2,29.2,30.35,ESE,112,3.0,9.0,85,0.00,,,0.00,Weather View 32 v70,2013-03-28 11:05:00,
2013-03-28 06:10:00,33.1,29.1,30.35,East,90,3.0,9.0,85,0.00,,,0.00,Weather View 32 v70,2013-03-28 11:10:00,
2013-03-28 06:15:00,32.9,28.9,30.35,ESE,112,4.0,9.0,85,0.00,,,0.00,Weather View 32 v70,2013-03-28 11:15:00,
2013-03-28 06:20:00,32.9,28.9,30.35,SE,135,5.0,9.0,85,0.00,,,0.00,Weather View 32 v70,2013-03-28 11:20:00,
2013-03-28 06:25:00,32.9,29.2,30.35,ESE,112,5.0,9.0,86,0.00,,,0.00,Weather View 32 v70,2013-03-28 11:25:00,
2013-03-28 06:30:00,32.9,29.2,30.35,SE,135,2.0,9.0,86,0.00,,,0.00,Weather View 32 v70,2013-03-28 11:30:00,
2013-03-28 06:35:00,32.8,29.1,30.36,ESE,112,2.0,9.0,86,0.00,,,0.00,Weather View 32 v70,2013-03-28 11:35:00,
2013-03-28 06:40:00,32.7,29.0,30.36,ESE,112,1.0,9.0,86,0.00,,,0.00,Weather View 32 v70,2013-03-28 11:40:00,
2013-03-28 06:45:00,32.6,29.2,30.36,ESE,112,2.0,8.0,87,0.00,,,0.00,Weather View 32 v70,2013-03-28 11:45:00,
2013-03-28 06:50:00,32.4,29.0,30.36,ESE,112,2.0,7.0,87,0.00,,,0.00,Weather View 32 v70,2013-03-28 11:50:00,
2013-03-28 06:55:00,32.2,28.8,30.35,ESE,112,2.0,7.0,87,0.00,,,0.00,Weather View 32 v70,2013-03-28 11:55:00,
2013-03-28 07:00:00,32.1,28.9,30.36,ESE,112,3.0,7.0,88,0.00,,,0.00,Weather View 32 v70,2013-03-28 12:00:00,
2013-03-28 07:05:00,32.1,28.9,30.36,SE,135,2.0,7.0,88,0.00,,,0.00,Weather View 32 v70,2013-03-28 12:05:00,
2013-03-28 07:10:00,31.9,28.8,30.36,ESE,112,3.0,7.0,88,0.00,,,0.00,Weather View 32 v70,2013-03-28 12:10:00,
2013-03-28 07:15:00,31.9,28.8,30.36,ESE,112,2.0,7.0,88,0.00,,,0.00,Weather View 32 v70,2013-03-28 12:15:00,
2013-03-28 07:20:00,31.9,29.0,30.36,ESE,112,2.0,7.0,89,0.00,,,0.00,Weather View 32 v70,2013-03-28 12:20:00,
2013-03-28 07:25:00,31.9,29.0,30.36,ESE,112,4.0,6.0,89,0.00,,,0.00,Weather View 32 v70,2013-03-28 12:25:00,
2013-03-28 07:30:00,32.1,29.2,30.36,SE,135,5.0,6.0,89,0.00,,,0.00,Weather View 32 v70,2013-03-28 12:30:00,
2013-03-28 07:35:00,32.2,29.3,30.36,SE,135,4.0,7.0,89,0.00,,,0.00,Weather View 32 v70,2013-03-28 12:35:00,
2013-03-28 07:40:00,32.4,29.2,30.36,SE,135,3.0,7.0,88,0.00,,,0.00,Weather View 32 v70,2013-03-28 12:40:00,
2013-03-28 07:45:00,32.5,29.3,30.37,SE,135,7.0,8.0,88,0.00,,,0.00,Weather View 32 v70,2013-03-28 12:45:00,
2013-03-28 07:50:00,32.6,29.4,30.37,ESE,112,2.0,8.0,88,0.00,,,0.00,Weather View 32 v70,2013-03-28 12:50:00,
2013-03-28 07:55:00,32.7,29.5,30.37,SE,135,3.0,8.0,88,0.00,,,0.00,Weather View 32 v70,2013-03-28 12:55:00,
2013-03-28 08:00:00,32.8,29.6,30.37,SE,135,4.0,8.0,88,0.00,,,0.00,Weather View 32 v70,2013-03-28 13:00:00,
2013-03-28 08:05:00,32.9,29.7,30.37,SE,135,2.0,8.0,88,0.00,,,0.00,Weather View 32 v70,2013-03-28 13:05:00,
2013-03-28 08:10:00,32.9,29.7,30.37,SE,135,3.0,8.0,88,0.00,,,0.00,Weather View 32 v70,2013-03-28 13:10:00,
2013-03-28 08:15:00,33.1,29.9,30.37,SE,135,3.0,8.0,88,0.00,,,0.00,Weather View 32 v70,2013-03-28 13:15:00,
2013-03-28 08:20:00,33.3,30.1,30.37,SE,135,2.0,8.0,88,0.00,,,0.00,Weather View 32 v70,2013-03-28 13:20:00,
2013-03-28 08:25:00,33.4,29.9,30.37,SE,135,4.0,8.0,87,0.00,,,0.00,Weather View 32 v70,2013-03-28 13:25:00,
2013-03-28 08:30:00,33.7,30.2,30.37,South,180,2.0,8.0,87,0.00,,,0.00,Weather View 32 v70,2013-03-28 13:30:00,
2013-03-28 08:35:00,34.1,30.4,30.37,SE,135,3.0,8.0,86,0.00,,,0.00,Weather View 32 v70,2013-03-28 13:35:00,
2013-03-28 08:40:00,34.4,30.4,30.37,SE,135,4.0,9.0,85,0.00,,,0.00,Weather View 32 v70,2013-03-28 13:40:00,
2013-03-28 08:45:00,34.8,30.7,30.37,SE,135,3.0,9.0,85,0.00,,,0.00,Weather View 32 v70,2013-03-28 13:45:00,
2013-03-28 08:50:00,35.2,31.1,30.37,SE,135,4.0,9.0,85,0.00,,,0.00,Weather View 32 v70,2013-03-28 13:50:00,
2013-03-28 08:55:00,35.5,31.1,30.37,SE,135,6.0,11.0,84,0.00,,,0.00,Weather View 32 v70,2013-03-28 13:55:00,
2013-03-28 09:00:00,35.9,31.2,30.37,SE,135,7.0,11.0,83,0.00,,,0.00,Weather View 32 v70,2013-03-28 14:00:00,
2013-03-28 09:05:00,36.2,31.2,30.37,SE,135,5.0,12.0,82,0.00,,,0.00,Weather View 32 v70,2013-03-28 14:05:00,
2013-03-28 09:10:00,36.6,31.3,30.37,SE,135,6.0,12.0,81,0.00,,,0.00,Weather View 32 v70,2013-03-28 14:10:00,
2013-03-28 09:15:00,36.9,31.6,30.37,ESE,112,3.0,12.0,81,0.00,,,0.00,Weather View 32 v70,2013-03-28 14:15:00,
2013-03-28 09:20:00,37.1,31.5,30.37,ESE,112,7.0,12.0,80,0.00,,,0.00,Weather View 32 v70,2013-03-28 14:20:00,
2013-03-28 09:25:00,37.6,31.7,30.37,SE,135,4.0,12.0,79,0.00,,,0.00,Weather View 32 v70,2013-03-28 14:25:00,
2013-03-28 09:30:00,37.9,32.0,30.37,ESE,112,4.0,12.0,79,0.00,,,0.00,Weather View 32 v70,2013-03-28 14:30:00,
2013-03-28 09:35:00,38.1,31.8,30.38,SE,135,6.0,12.0,78,0.00,,,0.00,Weather View 32 v70,2013-03-28 14:35:00,
2013-03-28 09:40:00,38.6,32.3,30.38,SE,135,4.0,12.0,78,0.00,,,0.00,Weather View 32 v70,2013-03-28 14:40:00,
2013-03-28 09:45:00,38.8,32.2,30.38,SE,135,4.0,14.0,77,0.00,,,0.00,Weather View 32 v70,2013-03-28 14:45:00,
2013-03-28 09:50:00,39.4,32.5,30.38,East,90,5.0,14.0,76,0.00,,,0.00,Weather View 32 v70,2013-03-28 14:50:00,
2013-03-28 09:55:00,39.6,32.3,30.38,SE,135,3.0,14.0,75,0.00,,,0.00,Weather View 32 v70,2013-03-28 14:55:00,
2013-03-28 10:00:00,39.4,32.1,30.38,SE,135,7.0,14.0,75,0.00,,,0.00,Weather View 32 v70,2013-03-28 15:00:00,
2013-03-28 10:05:00,39.8,32.5,30.38,ESE,112,7.0,14.0,75,0.00,,,0.00,Weather View 32 v70,2013-03-28 15:05:00,
2013-03-28 10:11:00,39.8,32.2,30.38,SE,135,7.0,14.0,74,0.00,,,0.00,Weather View 32 v70,2013-03-28 15:11:00,
2013-03-28 10:16:00,39.9,32.3,30.38,ESE,112,10.0,14.0,74,0.00,,,0.00,Weather View 32 v70,2013-03-28 15:16:00,
2013-03-28 10:21:00,40.3,32.7,30.39,SE,135,7.0,14.0,74,0.00,,,0.00,Weather View 32 v70,2013-03-28 15:21:00,
2013-03-28 10:26:00,40.7,32.4,30.39,ESE,112,9.0,14.0,72,0.00,,,0.00,Weather View 32 v70,2013-03-28 15:26:00,
2013-03-28 10:31:00,40.9,32.9,30.39,SE,135,6.0,14.0,73,0.00,,,0.00,Weather View 32 v70,2013-03-28 15:31:00,
2013-03-28 10:36:00,41.4,33.0,30.39,ESE,112,7.0,14.0,72,0.00,,,0.00,Weather View 32 v70,2013-03-28 15:36:00,
2013-03-28 10:41:00,41.7,33.0,30.38,SE,135,7.0,14.0,71,0.00,,,0.00,Weather View 32 v70,2013-03-28 15:41:00,
2013-03-28 10:46:00,42.1,33.4,30.39,SE,135,4.0,14.0,71,0.00,,,0.00,Weather View 32 v70,2013-03-28 15:46:00,
2013-03-28 10:51:00,42.4,32.9,30.38,SE,135,7.0,14.0,69,0.00,,,0.00,Weather View 32 v70,2013-03-28 15:51:00,
2013-03-28 10:56:00,42.5,33.4,30.38,ESE,112,7.0,14.0,70,0.00,,,0.00,Weather View 32 v70,2013-03-28 15:56:00,
2013-03-28 11:02:00,43.1,33.2,30.38,SSE,157,1.0,14.0,68,0.00,,,0.00,Weather View 32 v70,2013-03-28 16:02:00,
2013-03-28 11:07:00,43.6,33.4,30.38,SE,135,2.0,14.0,67,0.00,,,0.00,Weather View 32 v70,2013-03-28 16:07:00,
2013-03-28 11:12:00,44.6,33.5,30.38,ESE,112,7.0,14.0,65,0.00,,,0.00,Weather View 32 v70,2013-03-28 16:12:00,
2013-03-28 11:17:00,44.5,33.5,30.38,SE,135,4.0,14.0,65,0.00,,,0.00,Weather View 32 v70,2013-03-28 16:17:00,
2013-03-28 11:22:00,44.8,33.7,30.38,SE,135,3.0,14.0,65,0.00,,,0.00,Weather View 32 v70,2013-03-28 16:22:00,
2013-03-28 11:27:00,45.8,34.3,30.38,SE,135,5.0,12.0,64,0.00,,,0.00,Weather View 32 v70,2013-03-28 16:27:00,
2013-03-28 11:32:00,46.3,34.4,30.38,SE,135,2.0,11.0,63,0.00,,,0.00,Weather View 32 v70,2013-03-28 16:32:00,
2013-03-28 11:37:00,47.1,34.3,30.38,South,180,3.0,11.0,61,0.00,,,0.00,Weather View 32 v70,2013-03-28 16:37:00,
2013-03-28 11:42:00,46.9,34.1,30.38,ESE,112,5.0,11.0,61,0.00,,,0.00,Weather View 32 v70,2013-03-28 16:42:00,
2013-03-28 11:47:00,46.7,33.9,30.38,ESE,112,9.0,11.0,61,0.00,,,0.00,Weather View 32 v70,2013-03-28 16:47:00,
2013-03-28 11:52:00,46.8,34.0,30.38,SE,135,6.0,11.0,61,0.00,,,0.00,Weather View 32 v70,2013-03-28 16:52:00,
2013-03-28 11:57:00,47.7,34.0,30.39,ESE,112,6.0,11.0,59,0.00,,,0.00,Weather View 32 v70,2013-03-28 16:57:00,
2013-03-28 12:02:00,47.9,34.2,30.38,South,180,2.0,11.0,59,0.00,,,0.00,Weather View 32 v70,2013-03-28 17:02:00,
2013-03-28 12:07:00,48.6,34.5,30.38,South,180,2.0,11.0,58,0.00,,,0.00,Weather View 32 v70,2013-03-28 17:07:00,
2013-03-28 12:12:00,48.9,34.3,30.38,South,180,3.0,11.0,57,0.00,,,0.00,Weather View 32 v70,2013-03-28 17:12:00,
2013-03-28 12:17:00,49.7,34.6,30.38,SW,225,4.0,11.0,56,0.00,,,0.00,Weather View 32 v70,2013-03-28 17:17:00,
2013-03-28 12:22:00,49.8,34.3,30.38,SSE,157,3.0,11.0,55,0.00,,,0.00,Weather View 32 v70,2013-03-28 17:22:00,
2013-03-28 12:27:00,50.3,33.8,30.38,SE,135,4.0,11.0,53,0.00,,,0.00,Weather View 32 v70,2013-03-28 17:27:00,
2013-03-28 12:32:00,50.2,34.2,30.38,SE,135,1.0,11.0,54,0.00,,,0.00,Weather View 32 v70,2013-03-28 17:32:00,
2013-03-28 12:37:00,50.9,34.3,30.38,SE,135,8.0,11.0,53,0.00,,,0.00,Weather View 32 v70,2013-03-28 17:37:00,
2013-03-28 12:42:00,51.1,34.1,30.38,SSW,202,2.0,11.0,52,0.00,,,0.00,Weather View 32 v70,2013-03-28 17:42:00,
2013-03-28 12:47:00,50.9,33.9,30.37,SE,135,6.0,11.0,52,0.00,,,0.00,Weather View 32 v70,2013-03-28 17:47:00,
2013-03-28 12:52:00,51.4,33.8,30.37,East,90,9.0,11.0,51,0.00,,,0.00,Weather View 32 v70,2013-03-28 17:52:00,
2013-03-28 12:57:00,50.9,33.9,30.37,ESE,112,4.0,13.0,52,0.00,,,0.00,Weather View 32 v70,2013-03-28 17:57:00,
2013-03-28 13:02:00,51.2,34.6,30.37,SE,135,6.0,13.0,53,0.00,,,0.00,Weather View 32 v70,2013-03-28 18:02:00,
2013-03-28 13:07:00,51.0,34.0,30.37,SE,135,6.0,13.0,52,0.00,,,0.00,Weather View 32 v70,2013-03-28 18:07:00,
2013-03-28 13:12:00,50.9,33.9,30.37,ESE,112,6.0,13.0,52,0.00,,,0.00,Weather View 32 v70,2013-03-28 18:12:00,
2013-03-28 13:17:00,50.9,33.4,30.36,SE,135,8.0,13.0,51,0.00,,,0.00,Weather View 32 v70,2013-03-28 18:17:00,
2013-03-28 13:22:00,51.2,33.2,30.36,SSE,157,2.0,13.0,50,0.00,,,0.00,Weather View 32 v70,2013-03-28 18:22:00,
2013-03-28 13:27:00,51.9,33.8,30.36,SE,135,9.0,13.0,50,0.00,,,0.00,Weather View 32 v70,2013-03-28 18:27:00,
2013-03-28 13:32:00,52.6,33.9,30.36,SE,135,7.0,13.0,49,0.00,,,0.00,Weather View 32 v70,2013-03-28 18:32:00,
2013-03-28 13:37:00,52.7,33.5,30.36,SE,135,1.0,14.0,48,0.00,,,0.00,Weather View 32 v70,2013-03-28 18:37:00,
2013-03-28 13:42:00,52.5,34.4,30.36,SSE,157,4.0,14.0,50,0.00,,,0.00,Weather View 32 v70,2013-03-28 18:42:00,
2013-03-28 13:47:00,52.3,33.7,30.36,SSE,157,4.0,14.0,49,0.00,,,0.00,Weather View 32 v70,2013-03-28 18:47:00,
2013-03-28 13:52:00,52.5,34.4,30.36,SE,135,6.0,14.0,50,0.00,,,0.00,Weather View 32 v70,2013-03-28 18:52:00,
2013-03-28 13:57:00,52.4,34.3,30.35,SSE,157,2.0,14.0,50,0.00,,,0.00,Weather View 32 v70,2013-03-28 18:57:00,
2013-03-28 14:02:00,52.6,34.5,30.35,SE,135,7.0,14.0,50,0.00,,,0.00,Weather View 32 v70,2013-03-28 19:02:00,
2013-03-28 14:07:00,53.3,34.6,30.35,SE,135,6.0,14.0,49,0.00,,,0.00,Weather View 32 v70,2013-03-28 19:07:00,
2013-03-28 14:12:00,53.1,34.4,30.35,ESE,112,3.0,14.0,49,0.00,,,0.00,Weather View 32 v70,2013-03-28 19:12:00,
2013-03-28 14:17:00,52.8,33.6,30.35,ESE,112,4.0,16.0,48,0.00,,,0.00,Weather View 32 v70,2013-03-28 19:17:00,
2013-03-28 14:22:00,53.1,33.9,30.35,SE,135,6.0,16.0,48,0.00,,,0.00,Weather View 32 v70,2013-03-28 19:22:00,
2013-03-28 14:27:00,53.1,33.9,30.35,SE,135,2.0,16.0,48,0.00,,,0.00,Weather View 32 v70,2013-03-28 19:27:00,
2013-03-28 14:32:00,53.3,33.0,30.35,SE,135,2.0,16.0,46,0.00,,,0.00,Weather View 32 v70,2013-03-28 19:32:00,
2013-03-28 14:37:00,53.6,32.7,30.35,East,90,3.0,16.0,45,0.00,,,0.00,Weather View 32 v70,2013-03-28 19:37:00,
2013-03-28 14:42:00,54.0,33.1,30.35,South,180,4.0,16.0,45,0.00,,,0.00,Weather View 32 v70,2013-03-28 19:42:00,
2013-03-28 14:48:00,53.5,32.6,30.35,SE,135,4.0,16.0,45,0.00,,,0.00,Weather View 32 v70,2013-03-28 19:48:00,
2013-03-28 14:53:00,53.7,32.8,30.35,East,90,4.0,16.0,45,0.00,,,0.00,Weather View 32 v70,2013-03-28 19:53:00,
2013-03-28 14:58:00,53.7,32.8,30.35,SE,135,2.0,16.0,45,0.00,,,0.00,Weather View 32 v70,2013-03-28 19:58:00,
2013-03-28 15:03:00,53.9,33.0,30.35,SE,135,1.0,16.0,45,0.00,,,0.00,Weather View 32 v70,2013-03-28 20:03:00,
2013-03-28 15:08:00,53.8,33.5,30.35,SE,135,7.0,16.0,46,0.00,,,0.00,Weather View 32 v70,2013-03-28 20:08:00,
2013-03-28 15:13:00,53.9,33.6,30.35,ESE,112,4.0,16.0,46,0.00,,,0.00,Weather View 32 v70,2013-03-28 20:13:00,
2013-03-28 15:18:00,53.9,33.0,30.35,SE,135,5.0,13.0,45,0.00,,,0.00,Weather View 32 v70,2013-03-28 20:18:00,
2013-03-28 15:23:00,54.4,33.5,30.34,SE,135,4.0,13.0,45,0.00,,,0.00,Weather View 32 v70,2013-03-28 20:23:00,
2013-03-28 15:28:00,54.7,34.3,30.34,SSW,202,1.0,13.0,46,0.00,,,0.00,Weather View 32 v70,2013-03-28 20:28:00,
2013-03-28 15:33:00,54.7,33.2,30.34,SSW,202,1.0,13.0,44,0.00,,,0.00,Weather View 32 v70,2013-03-28 20:33:00,
2013-03-28 15:38:00,54.4,32.9,30.34,East,90,5.0,13.0,44,0.00,,,0.00,Weather View 32 v70,2013-03-28 20:38:00,
2013-03-28 15:43:00,54.4,32.9,30.34,SE,135,7.0,13.0,44,0.00,,,0.00,Weather View 32 v70,2013-03-28 20:43:00,
2013-03-28 15:48:00,54.7,33.2,30.34,SE,135,6.0,13.0,44,0.00,,,0.00,Weather View 32 v70,2013-03-28 20:48:00,
2013-03-28 15:53:00,54.7,33.2,30.33,SE,135,4.0,13.0,44,0.00,,,0.00,Weather View 32 v70,2013-03-28 20:53:00,
2013-03-28 15:58:00,54.9,32.8,30.33,WSW,247,2.0,13.0,43,0.00,,,0.00,Weather View 32 v70,2013-03-28 20:58:00,
2013-03-28 16:03:00,54.9,33.4,30.33,SE,135,4.0,13.0,44,0.00,,,0.00,Weather View 32 v70,2013-03-28 21:03:00,
2013-03-28 16:08:00,54.6,33.6,30.33,SE,135,4.0,12.0,45,0.00,,,0.00,Weather View 32 v70,2013-03-28 21:08:00,
2013-03-28 16:13:00,54.6,33.1,30.33,ESE,112,6.0,12.0,44,0.00,,,0.00,Weather View 32 v70,2013-03-28 21:13:00,
2013-03-28 16:18:00,54.3,33.4,30.33,SE,135,4.0,11.0,45,0.00,,,0.00,Weather View 32 v70,2013-03-28 21:18:00,
2013-03-28 16:23:00,54.2,33.3,30.33,ESE,112,7.0,11.0,45,0.00,,,0.00,Weather View 32 v70,2013-03-28 21:23:00,
2013-03-28 16:28:00,53.9,33.0,30.33,SE,135,3.0,11.0,45,0.00,,,0.00,Weather View 32 v70,2013-03-28 21:28:00,
2013-03-28 16:33:00,53.9,33.0,30.33,SE,135,4.0,11.0,45,0.00,,,0.00,Weather View 32 v70,2013-03-28 21:33:00,
2013-03-28 16:38:00,53.9,33.0,30.33,ESE,112,2.0,11.0,45,0.00,,,0.00,Weather View 32 v70,2013-03-28 21:38:00,
2013-03-28 16:43:00,53.9,33.0,30.33,ESE,112,4.0,11.0,45,0.00,,,0.00,Weather View 32 v70,2013-03-28 21:43:00,
2013-03-28 16:48:00,53.6,32.7,30.33,SE,135,4.0,11.0,45,0.00,,,0.00,Weather View 32 v70,2013-03-28 21:48:00,
2013-03-28 16:53:00,53.6,32.7,30.33,SE,135,3.0,11.0,45,0.00,,,0.00,Weather View 32 v70,2013-03-28 21:53:00,
2013-03-28 16:58:00,53.5,32.6,30.33,SSE,157,2.0,11.0,45,0.00,,,0.00,Weather View 32 v70,2013-03-28 21:58:00,
2013-03-28 17:04:00,53.6,32.7,30.33,SSE,157,1.0,11.0,45,0.00,,,0.00,Weather View 32 v70,2013-03-28 22:04:00,
2013-03-28 17:09:00,53.6,32.7,30.33,SE,135,2.0,11.0,45,0.00,,,0.00,Weather View 32 v70,2013-03-28 22:09:00,
2013-03-28 17:14:00,53.6,32.7,30.34,ESE,112,6.0,11.0,45,0.00,,,0.00,Weather View 32 v70,2013-03-28 22:14:00,
2013-03-28 17:19:00,53.5,32.6,30.34,SE,135,3.0,11.0,45,0.00,,,0.00,Weather View 32 v70,2013-03-28 22:19:00,
2013-03-28 17:24:00,53.6,32.7,30.33,South,180,2.0,11.0,45,0.00,,,0.00,Weather View 32 v70,2013-03-28 22:24:00,
2013-03-28 17:29:00,53.5,32.6,30.33,ESE,112,4.0,9.0,45,0.00,,,0.00,Weather View 32 v70,2013-03-28 22:29:00,
2013-03-28 17:34:00,53.5,32.6,30.33,SSE,157,1.0,9.0,45,0.00,,,0.00,Weather View 32 v70,2013-03-28 22:34:00,
2013-03-28 17:39:00,53.6,33.3,30.33,SE,135,2.0,9.0,46,0.00,,,0.00,Weather View 32 v70,2013-03-28 22:39:00,
2013-03-28 17:44:00,53.5,32.6,30.33,East,90,4.0,9.0,45,0.00,,,0.00,Weather View 32 v70,2013-03-28 22:44:00,
2013-03-28 17:49:00,53.3,32.5,30.33,East,90,4.0,9.0,45,0.00,,,0.00,Weather View 32 v70,2013-03-28 22:49:00,
2013-03-28 17:54:00,53.1,32.3,30.34,ESE,112,4.0,9.0,45,0.00,,,0.00,Weather View 32 v70,2013-03-28 22:54:00,
2013-03-28 17:59:00,53.0,32.7,30.33,ESE,112,4.0,9.0,46,0.00,,,0.00,Weather View 32 v70,2013-03-28 22:59:00,
2013-03-28 18:04:00,53.0,32.7,30.33,ESE,112,2.0,9.0,46,0.00,,,0.00,Weather View 32 v70,2013-03-28 23:04:00,
2013-03-28 18:09:00,53.0,32.7,30.33,SE,135,5.0,9.0,46,0.00,,,0.00,Weather View 32 v70,2013-03-28 23:09:00,
2013-03-28 18:14:00,52.9,32.6,30.33,SE,135,2.0,8.0,46,0.00,,,0.00,Weather View 32 v70,2013-03-28 23:14:00,
2013-03-28 18:19:00,52.9,33.2,30.33,ESE,112,2.0,8.0,47,0.00,,,0.00,Weather View 32 v70,2013-03-28 23:19:00,
2013-03-28 18:24:00,52.9,32.6,30.33,SE,135,1.0,8.0,46,0.00,,,0.00,Weather View 32 v70,2013-03-28 23:24:00,
2013-03-28 18:29:00,52.8,33.1,30.33,ESE,112,4.0,8.0,47,0.00,,,0.00,Weather View 32 v70,2013-03-28 23:29:00,
2013-03-28 18:34:00,52.7,33.0,30.33,East,90,4.0,6.0,47,0.00,,,0.00,Weather View 32 v70,2013-03-28 23:34:00,
2013-03-28 18:39:00,52.7,33.5,30.33,ESE,112,4.0,6.0,48,0.00,,,0.00,Weather View 32 v70,2013-03-28 23:39:00,
2013-03-28 18:44:00,52.7,33.5,30.33,ESE,112,4.0,6.0,48,0.00,,,0.00,Weather View 32 v70,2013-03-28 23:44:00,
2013-03-28 18:49:00,52.6,32.9,30.33,ESE,112,4.0,6.0,47,0.00,,,0.00,Weather View 32 v70,2013-03-28 23:49:00,
2013-03-28 18:54:00,52.6,33.4,30.33,SE,135,2.0,6.0,48,0.00,,,0.00,Weather View 32 v70,2013-03-28 23:54:00,
2013-03-28 18:59:00,52.5,32.8,30.33,SE,135,2.0,6.0,47,0.00,,,0.00,Weather View 32 v70,2013-03-28 23:59:00,
2013-03-28 19:04:00,52.5,33.3,30.33,ESE,112,1.0,6.0,48,0.00,,,0.00,Weather View 32 v70,2013-03-29 00:04:00,
2013-03-28 19:09:00,52.4,33.2,30.33,ESE,112,1.0,6.0,48,0.00,,,0.00,Weather View 32 v70,2013-03-29 00:09:00,
2013-03-28 19:14:00,52.3,33.2,30.33,ESE,112,3.0,6.0,48,0.00,,,0.00,Weather View 32 v70,2013-03-29 00:14:00,
2013-03-28 19:19:00,52.3,33.7,30.33,ESE,112,2.0,7.0,49,0.00,,,0.00,Weather View 32 v70,2013-03-29 00:19:00,
2013-03-28 19:24:00,52.2,33.6,30.32,SSE,157,1.0,7.0,49,0.00,,,0.00,Weather View 32 v70,2013-03-29 00:24:00,
2013-03-28 19:29:00,52.0,33.9,30.33,South,180,1.0,7.0,50,0.00,,,0.00,Weather View 32 v70,2013-03-29 00:29:00,
2013-03-28 19:34:00,51.5,33.9,30.33,South,180,3.0,7.0,51,0.00,,,0.00,Weather View 32 v70,2013-03-29 00:34:00,
2013-03-28 19:39:00,51.1,34.1,30.33,South,180,0.0,7.0,52,0.00,,,0.00,Weather View 32 v70,2013-03-29 00:39:00,
2013-03-28 19:44:00,50.8,33.8,30.33,South,180,0.0,7.0,52,0.00,,,0.00,Weather View 32 v70,2013-03-29 00:44:00,
2013-03-28 19:49:00,50.6,33.6,30.33,SE,135,2.0,7.0,52,0.00,,,0.00,Weather View 32 v70,2013-03-29 00:49:00,
2013-03-28 19:54:00,50.6,33.6,30.33,SE,135,2.0,7.0,52,0.00,,,0.00,Weather View 32 v70,2013-03-29 00:54:00,
2013-03-28 19:59:00,50.5,33.5,30.33,SE,135,2.0,7.0,52,0.00,,,0.00,Weather View 32 v70,2013-03-29 00:59:00,
2013-03-28 20:04:00,50.4,33.9,30.33,SE,135,2.0,7.0,53,0.00,,,0.00,Weather View 32 v70,2013-03-29 01:04:00,
2013-03-28 20:09:00,50.2,34.2,30.33,SE,135,0.0,7.0,54,0.00,,,0.00,Weather View 32 v70,2013-03-29 01:09:00,
2013-03-28 20:14:00,49.9,33.9,30.33,SE,135,1.0,7.0,54,0.00,,,0.00,Weather View 32 v70,2013-03-29 01:14:00,
2013-03-28 20:19:00,49.7,34.2,30.33,SE,135,2.0,6.0,55,0.00,,,0.00,Weather View 32 v70,2013-03-29 01:19:00,
2013-03-28 20:24:00,49.5,34.0,30.34,East,90,0.0,4.0,55,0.00,,,0.00,Weather View 32 v70,2013-03-29 01:24:00,
2013-03-28 20:29:00,49.2,33.7,30.34,East,90,2.0,4.0,55,0.00,,,0.00,Weather View 32 v70,2013-03-29 01:29:00,
2013-03-28 20:34:00,48.9,33.9,30.34,East,90,2.0,4.0,56,0.00,,,0.00,Weather View 32 v70,2013-03-29 01:34:00,
2013-03-28 20:39:00,48.4,33.8,30.34,East,90,1.0,4.0,57,0.00,,,0.00,Weather View 32 v70,2013-03-29 01:39:00,
2013-03-28 20:44:00,47.9,33.8,30.34,East,90,1.0,4.0,58,0.00,,,0.00,Weather View 32 v70,2013-03-29 01:44:00,
2013-03-28 20:49:00,48.0,33.9,30.34,East,90,1.0,4.0,58,0.00,,,0.00,Weather View 32 v70,2013-03-29 01:49:00,
2013-03-28 20:54:00,47.8,33.7,30.34,East,90,1.0,2.0,58,0.00,,,0.00,Weather View 32 v70,2013-03-29 01:54:00,
2013-03-28 20:59:00,47.3,33.7,30.34,East,90,1.0,2.0,59,0.00,,,0.00,Weather View 32 v70,2013-03-29 01:59:00,
2013-03-28 21:04:00,46.9,33.7,30.34,East,90,2.0,2.0,60,0.00,,,0.00,Weather View 32 v70,2013-03-29 02:04:00,
2013-03-28 21:09:00,46.7,33.5,30.34,East,90,2.0,2.0,60,0.00,,,0.00,Weather View 32 v70,2013-03-29 02:09:00,
2013-03-28 21:15:00,46.8,33.6,30.34,East,90,2.0,3.0,60,0.00,,,0.00,Weather View 32 v70,2013-03-29 02:15:00,
2013-03-28 21:20:00,46.8,34.4,30.34,East,90,0.0,3.0,62,0.00,,,0.00,Weather View 32 v70,2013-03-29 02:20:00,
2013-03-28 21:25:00,46.1,34.2,30.34,East,90,0.0,3.0,63,0.00,,,0.00,Weather View 32 v70,2013-03-29 02:25:00,
2013-03-28 21:30:00,45.6,33.7,30.34,East,90,1.0,3.0,63,0.00,,,0.00,Weather View 32 v70,2013-03-29 02:30:00,
2013-03-28 21:35:00,45.6,33.7,30.34,East,90,0.0,3.0,63,0.00,,,0.00,Weather View 32 v70,2013-03-29 02:35:00,
2013-03-28 21:40:00,45.3,33.8,30.35,East,90,0.0,3.0,64,0.00,,,0.00,Weather View 32 v70,2013-03-29 02:40:00,
2013-03-28 21:45:00,44.9,33.0,30.35,East,90,1.0,3.0,63,0.00,,,0.00,Weather View 32 v70,2013-03-29 02:45:00,
2013-03-28 21:50:00,44.6,32.8,30.34,East,90,1.0,3.0,63,0.00,,,0.00,Weather View 32 v70,2013-03-29 02:50:00,
2013-03-28 21:55:00,44.1,32.3,30.34,East,90,1.0,3.0,63,0.00,,,0.00,Weather View 32 v70,2013-03-29 02:55:00,
2013-03-28 22:00:00,44.2,32.0,30.34,East,90,2.0,3.0,62,0.00,,,0.00,Weather View 32 v70,2013-03-29 03:00:00,
2013-03-28 22:05:00,43.9,32.1,30.35,ENE,67,0.0,3.0,63,0.00,,,0.00,Weather View 32 v70,2013-03-29 03:05:00,
2013-03-28 22:10:00,43.6,33.0,30.35,ENE,67,0.0,3.0,66,0.00,,,0.00,Weather View 32 v70,2013-03-29 03:10:00,
2013-03-28 22:15:00,43.2,32.6,30.35,ENE,67,2.0,2.0,66,0.00,,,0.00,Weather View 32 v70,2013-03-29 03:15:00,
2013-03-28 22:20:00,43.2,32.6,30.35,East,90,3.0,3.0,66,0.00,,,0.00,Weather View 32 v70,2013-03-29 03:20:00,
2013-03-28 22:25:00,44.1,32.7,30.35,East,90,1.0,3.0,64,0.00,,,0.00,Weather View 32 v70,2013-03-29 03:25:00,
2013-03-28 22:30:00,44.3,32.9,30.34,East,90,2.0,3.0,64,0.00,,,0.00,Weather View 32 v70,2013-03-29 03:30:00,
2013-03-28 22:35:00,44.5,32.7,30.34,East,90,2.0,3.0,63,0.00,,,0.00,Weather View 32 v70,2013-03-29 03:35:00,
2013-03-28 22:40:00,44.9,32.7,30.34,ESE,112,2.0,3.0,62,0.00,,,0.00,Weather View 32 v70,2013-03-29 03:40:00,
2013-03-28 22:45:00,45.1,33.2,30.34,ESE,112,2.0,4.0,63,0.00,,,0.00,Weather View 32 v70,2013-03-29 03:45:00,
2013-03-28 22:50:00,45.2,32.9,30.34,ESE,112,2.0,4.0,62,0.00,,,0.00,Weather View 32 v70,2013-03-29 03:50:00,
2013-03-28 22:55:00,45.2,33.3,30.34,ESE,112,1.0,4.0,63,0.00,,,0.00,Weather View 32 v70,2013-03-29 03:55:00,
2013-03-28 23:00:00,45.1,33.2,30.34,ESE,112,1.0,4.0,63,0.00,,,0.00,Weather View 32 v70,2013-03-29 04:00:00,
2013-03-28 23:05:00,45.1,33.2,30.34,ESE,112,2.0,4.0,63,0.00,,,0.00,Weather View 32 v70,2013-03-29 04:05:00,
2013-03-28 23:10:00,45.0,33.1,30.34,ESE,112,3.0,5.0,63,0.00,,,0.00,Weather View 32 v70,2013-03-29 04:10:00,
2013-03-28 23:15:00,44.9,32.7,30.34,ESE,112,4.0,5.0,62,0.00,,,0.00,Weather View 32 v70,2013-03-29 04:15:00,
2013-03-28 23:20:00,44.5,33.1,30.34,ESE,112,3.0,5.0,64,0.00,,,0.00,Weather View 32 v70,2013-03-29 04:20:00,
2013-03-28 23:25:00,44.3,33.3,30.34,ESE,112,3.0,5.0,65,0.00,,,0.00,Weather View 32 v70,2013-03-29 04:25:00,
2013-03-28 23:30:00,44.4,33.4,30.34,ESE,112,3.0,5.0,65,0.00,,,0.00,Weather View 32 v70,2013-03-29 04:30:00,
2013-03-28 23:35:00,44.8,33.3,30.34,ESE,112,4.0,6.0,64,0.00,,,0.00,Weather View 32 v70,2013-03-29 04:35:00,
2013-03-28 23:40:00,44.8,33.3,30.34,East,90,3.0,7.0,64,0.00,,,0.00,Weather View 32 v70,2013-03-29 04:40:00,
2013-03-28 23:45:00,44.9,33.8,30.34,ESE,112,3.0,7.0,65,0.00,,,0.00,Weather View 32 v70,2013-03-29 04:45:00,
2013-03-28 23:50:00,44.9,33.8,30.34,ESE,112,4.0,7.0,65,0.00,,,0.00,Weather View 32 v70,2013-03-29 04:50:00,
2013-03-28 23:55:00,45.0,34.3,30.34,SE,135,4.0,7.0,66,0.00,,,0.00,Weather View 32 v70,2013-03-29 04:55:00,